STARLINK-5483, 55643

Orbit data source: Space-Track

STARLINK-5483, 55643 is a payload satellite owned by SpaceX/Seattle (US) in LEO that was launched on Fri, 17 Feb 2023 UTC via an FALCON 9 launch vehicle from the Air Force Western Test Range (AFWTR). Payload-class satellites include a variety of spacecraft equipped with specific instruments for various scientific and technological missions. These include communications satellites like Starlink; space stations such as the ISS; scientific satellites like the Hubble; Earth observation satellites from companies like Planet Labs, Umbra, and HawkEye 360; GPS; miniature CubeSats for education and research; and military/defense satellites.

Loading next visibility...
Identifier
55643, 2023-021R
Orbit
LEO
Country
Flag of USUS
Related business
Manufacturer
SpaceX/Seattle
Mission
Operational Commercial Communications
Bus & Motor
STARLINK, Unknown motor
Mass
305 kg wet, ~290 kg dry
Launch date (UTC)
2023-02-17 (3 years ago)
Launch vehicle
FALCON 9
Launch site
Air Force Western Test Range (AFWTR)
Object type
Payload
Rocket body
Debris
Shape & HBR
Box + 1 Pan, 10.1 m
Radar Cross Section
13.562 m², Large (>1 m²)

Expand to show TLE details & history
Last TLE update: 2 days ago

TLE from 2 days ago
0 STARLINK-5483
1 55643U 23021R   26171.41248123 -.00000319  00000-0 -18909-4 0  9999
2 55643  69.9994 285.6344 0003403 270.5666  89.5103 14.98329574184174
Epoch: 2026-06-20T09:53Z
TLE epoch observation values (Epoch: 2026-06-20T09:53:58.378Z)
Latitude
-0.00002°
Longitude
-131.48632°
Altitude
574.462 km
Speed
7.574 km/s
True Right ascension
19h 02m 32s
True Declination
0° 00' 00"
Sunlit
Object was in full shadow at epoch
Visualization orbit readout
Latitude
Unknown
Longitude
Unknown
Altitude
Unknown
Speed
Unknown
Apparent Right ascension
Unknown
Apparent Declination
Unknown
Sunlit
N/A
Visualization observer readout
Local Sidereal Time
21:35:09
Azimuth
Unknown
Elevation
Unknown
Doppler factor
Unknown
Orbital elements
Apogee altitude
572.37 km
Perigee altitude
567.641 km
Semi-major axis
6,948.143 km
Eccentricity
0.00034
Inclination
69.9994°
RAAN
285.6344°
Arg. of periapsis
270.5666°
True anomaly
89.54929°
Mean anomaly
89.5103°
Eccentric anomaly
89.5298°
Mean motion
3.74749 °/min
Orbital period
96.06 mins
BSTAR
-0.000018909
Loading maneuver chart data...
Computing Atmospheric mass density...

Documentation

Showing up to 5 results
|